Location: Chena
(64.8152°N, 147.9227°W)
Time: 08:16:53
(UTC+00:00)

N. Korean satellite - Pass Details

Date: 29 January 2021
Orbit: 451 x 502 km, 97.2° (Epoch: 08 March)

Event Time Altitude Azimuth Distance (km) Brightness Sun altitude
Rises 13:51:17 0° 26° (NNE) 2,521 10.9 -30.0°
Reaches altitude 10° 13:55:09 10° 70° (ENE) 1,623 10.1 -29.6°
Maximum altitude 13:55:45 10° 80° (E) 1,599 10.1 -29.5°
Drops below altitude 10° 13:56:22 10° 90° (E) 1,618 10.0 -29.5°
Sets 14:00:09 0° 134° (SE) 2,474 10.5 -29.1°
